STARLINK-32539, 62022

Orbit data source: Space-Track

STARLINK-32539, 62022 is a payload satellite owned by SpaceX/Seattle (US) in LEO that was launched on Mon, 18 Nov 2024 UTC via an FALCON 9 launch vehicle from the Air Force Western Test Range (AFWTR). Payload-class satellites include a variety of spacecraft equipped with specific instruments for various scientific and technological missions. These include communications satellites like Starlink; space stations such as the ISS; scientific satellites like the Hubble; Earth observation satellites from companies like Planet Labs, Umbra, and HawkEye 360; GPS; miniature CubeSats for education and research; and military/defense satellites.

Loading next visibility...
Identifier
62022, 2024-213Q
Orbit
LEO
Last TLE update
18 hours ago
Origin
Manufacturer
SpaceX/Seattle
Mission
Operational Commercial Communications
Bus & Motor
STARLINK V2M, Unknown motor
Mass
730 kg wet, ~700 kg dry
Launch date (UTC)
2024-11-18 (8 months ago)
Launch vehicle
FALCON 9
Launch site
Air Force Western Test Range (AFWTR)
Object type
Payload
Rocket body
Debris
Shape & HBR
Box + 2 Pan, 29 m
Radar Cross Section
36.964 m², Large (>1 m²)

Expand to show TLE details & history

TLE from 18 hours ago
0 STARLINK-32539
1 62022U 24213Q   25191.27473170  .00008154  00000-0  28701-3 0  9992
2 62022  53.1585 201.6052 0001474  81.5275 278.5893 15.30213846 36218
Epoch: 2025-07-10T06:35Z
TLE epoch observation values (Epoch: 2025-07-10T06:35:36.818Z)
Latitude
-0.00002°
Longitude
174.25842°
Altitude
475.923 km
Speed
7.629 km/s
True Right ascension
13h 26m 25s
True Declination
0° 00' 00"
Sunlit
Object was in daylight at epoch
Visualization orbit readout
Latitude
52.69912°
Longitude
-87.13005°
Altitude
480.59 km
Speed
7.632 km/s
Apparent Right ascension
22h 28m 45s
Apparent Declination
10° 14' 29"
Sunlit
Object is in daylight
Visualization observer readout
Local Sidereal Time
12:31:45
Azimuth
36.539° NE
Elevation
-32.314°
Doppler factor
1
Orbital elements
Apogee altitude
476.441 km
Perigee altitude
474.42 km
Semi-major axis
6,853.567 km
Eccentricity
0.00015
Inclination
53.1585°
RAAN
201.6052°
Arg. of periapsis
81.5275°
True anomaly
Unknown
Mean anomaly
278.5893°
Eccentric anomaly
Unknown
Mean motion
3.82532 °/min
Orbital period
94.11 mins
BSTAR
0.00028701
Loading maneuver chart data...
Loading SW <> Apogee altitude chart data...
Loading historical data...
Loading historical data...
Loading historical data...
Loading historical data...
Loading historical data...
Loading historical data...
Loading historical data...

STARLINK-32539 Visibility forecast

Observer location: undefined°, undefined°

Span
Click to sort rows by Start time (UTC) header in descending order
Start Az.
Max El. time (UTC)
Max El. Az.
Max El.
End time (UTC)
End Az.
6 mins2025-07-11 03:08:33.703Z215.451° SW2025-07-11 03:11:33.703Z133.063° SE41.366°2025-07-11 03:14:33.703Z57.699° ENE
4 mins2025-07-11 04:48:33.703Z307.635° NW2025-07-11 04:49:33.703Z331.097° NNW20.585°2025-07-11 04:52:33.703Z26.987° NE
5 mins2025-07-11 09:44:33.703Z328.036° NNW2025-07-11 09:46:33.703Z37.851° NE38.363°2025-07-11 09:49:33.703Z111.633° ESE
|